Weather History for Barnwell, SC

Change the Weather History Date:

Thursday, May 9, 2013

  Actual Average (KOGB) Record (KOGB)
Temperature  
Mean Temperature 70 °F 70 °F  
Max Temperature 86 °F 82 °F 93 °F (1962)
Min Temperature 55 °F 57 °F 43 °F (1960)
Degree Days  
Heating Degree Days 0 1  
Month to date heating degree days 9  
Since 1 July heating degree days 2326  
Cooling Degree Days 6 5  
Month to date cooling degree days 40  
Year to date cooling degree days 125  
Growing Degree Days 20 (Base 50)    
Moisture  
Dew Point 57 °F    
Average Humidity 63    
Maximum Humidity 94    
Minimum Humidity 35    
Precipitation  
Precipitation 0.00 in 0.09 in 1.26 in (2012)
Month to date precipitation 0.75  
Year to date precipitation 15.15  
Sea Level Pressure  
Sea Level Pressure 30.07 in    
Wind  
Wind Speed 2 mph (West)    
Max Wind Speed 12 mph    
Max Gust Speed 17 mph    
Visibility 10 miles    
Events      
T = Trace of Precipitation, MM = Missing Value Source: NWS Daily Summary

Daily Weather History Graph

Daily Weather History Graph

Search for Another Location

Airport:

Trip Planner

Search our weather history database for the weather conditions in past years. The results will help you decide how hot, cold, wet, or windy it might be!

Date:

Astronomy

May. 09, 2013 Rise Set
Actual Time 6:30 AM EDT 8:14 PM EDT
Civil Twilight 6:03 AM EDT 8:41 PM EDT
Nautical Twilight 5:30 AM EDT 9:13 PM EDT
Astronomical Twilight 4:56 AM EDT 9:48 PM EDT
Moon 6:12 AM EDT (5/9) 8:08 PM EDT (5/9)
Length of Visible Light 14h 38m
Length of Day
13h 44m
Waning Crescent, 0% of the Moon is Illuminated
May 9
Waning Crescent
May 9
New
May 18
First Quarter
May 25
Full
May 31
Last Quarter

Hourly Weather History & Observations

Time (EDT) Temp. Heat Index Dew Point Humidity Pressure Visibility Wind Dir Wind Speed Gust Speed Precip Events Conditions
12:15 AM 59.0 °F - 55.4 °F 88% 30.06 in 10.0 mi Calm Calm - N/A   Clear
12:55 AM 59.0 °F - 55.4 °F 88% 30.05 in 10.0 mi Calm Calm - N/A   Clear
1:15 AM 59.0 °F - 55.4 °F 88% 30.05 in 10.0 mi Calm Calm - N/A   Clear
1:55 AM 60.8 °F - 55.4 °F 82% 30.05 in 10.0 mi Calm Calm - N/A   Clear
2:35 AM 59.0 °F - 55.4 °F 88% 30.04 in 10.0 mi Calm Calm - N/A   Clear
3:15 AM 57.2 °F - 55.4 °F 94% 30.03 in 10.0 mi Calm Calm - N/A   Clear
3:35 AM 55.4 °F - 53.6 °F 94% 30.03 in 10.0 mi Calm Calm - N/A   Clear
4:15 AM 55.4 °F - 53.6 °F 94% 30.03 in 10.0 mi Calm Calm - N/A   Clear
4:55 AM 55.4 °F - 53.6 °F 94% 30.03 in 10.0 mi Calm Calm - N/A   Clear
5:55 AM 55.4 °F - 53.6 °F 94% 30.04 in 10.0 mi Calm Calm - N/A   Clear
6:55 AM 55.4 °F - 53.6 °F 94% 30.07 in 10.0 mi Calm Calm - N/A   Clear
7:35 AM 59.0 °F - 55.4 °F 88% 30.09 in 10.0 mi Calm Calm - N/A   Clear
7:55 AM 60.8 °F - 57.2 °F 88% 30.09 in 10.0 mi Calm Calm - N/A   Clear
8:15 AM 62.6 °F - 57.2 °F 82% 30.10 in 10.0 mi Calm Calm - N/A   Clear
10:15 AM 75.2 °F - 59.0 °F 57% 30.10 in 10.0 mi Calm Calm - N/A   Clear
10:35 AM 75.2 °F - 59.0 °F 57% 30.10 in 10.0 mi Calm Calm - N/A   Clear
10:55 AM 77.0 °F - 59.0 °F 54% 30.10 in 10.0 mi WNW 3.5 mph - N/A   Clear
11:15 AM 78.8 °F - 59.0 °F 51% 30.11 in 10.0 mi WSW 4.6 mph - N/A   Clear
11:35 AM 78.8 °F - 59.0 °F 51% 30.11 in 10.0 mi Calm Calm - N/A   Clear
11:55 AM 80.6 °F 80.8 °F 57.2 °F 45% 30.11 in 10.0 mi WNW 4.6 mph - N/A   Clear
12:15 PM 80.6 °F 80.8 °F 57.2 °F 45% 30.10 in 10.0 mi NW 5.8 mph - N/A   Clear
12:35 PM 80.6 °F 80.8 °F 57.2 °F 45% 30.11 in 10.0 mi SW 4.6 mph - N/A   Clear
12:55 PM 82.4 °F 82.0 °F 57.2 °F 42% 30.10 in 10.0 mi Calm Calm - N/A   Scattered Clouds
1:15 PM 82.4 °F 82.0 °F 57.2 °F 42% 30.10 in 10.0 mi Calm Calm - N/A   Mostly Cloudy
1:55 PM 84.2 °F 83.0 °F 55.4 °F 37% 30.09 in 10.0 mi West 11.5 mph - N/A   Mostly Cloudy
2:15 PM 84.2 °F 82.8 °F 53.6 °F 35% 30.09 in 10.0 mi WSW 8.1 mph - N/A   Scattered Clouds
2:35 PM 84.2 °F 83.0 °F 55.4 °F 37% 30.09 in 10.0 mi West 10.4 mph 17.3 mph N/A   Scattered Clouds
2:55 PM 84.2 °F 82.8 °F 53.6 °F 35% 30.08 in 10.0 mi WSW 9.2 mph - N/A   Mostly Cloudy
3:15 PM 84.2 °F 83.0 °F 55.4 °F 37% 30.07 in 10.0 mi WNW 5.8 mph - N/A   Partly Cloudy
3:35 PM 86.0 °F 84.5 °F 55.4 °F 35% 30.07 in 10.0 mi West 9.2 mph - N/A   Partly Cloudy
4:15 PM 84.2 °F 83.0 °F 55.4 °F 37% 30.05 in 10.0 mi WSW 11.5 mph - N/A   Scattered Clouds
4:35 PM 84.2 °F 82.8 °F 53.6 °F 35% 30.05 in 10.0 mi Calm Calm - N/A   Partly Cloudy
4:55 PM 84.2 °F 83.0 °F 55.4 °F 37% 30.04 in 10.0 mi West 6.9 mph - N/A   Partly Cloudy
5:15 PM 84.2 °F 83.0 °F 55.4 °F 37% 30.04 in 10.0 mi WSW 9.2 mph - N/A   Partly Cloudy
5:35 PM 82.4 °F 82.0 °F 57.2 °F 42% 30.05 in 10.0 mi WSW 3.5 mph - N/A   Scattered Clouds
5:55 PM 82.4 °F 82.0 °F 57.2 °F 42% 30.05 in 10.0 mi West 3.5 mph - N/A   Mostly Cloudy
6:15 PM 84.2 °F 83.5 °F 57.2 °F 40% 30.05 in 10.0 mi West 4.6 mph - N/A   Scattered Clouds
6:35 PM 82.4 °F 81.7 °F 55.4 °F 39% 30.04 in 10.0 mi WSW 4.6 mph - N/A   Partly Cloudy
6:55 PM 82.4 °F 81.7 °F 55.4 °F 39% 30.05 in 10.0 mi West 4.6 mph - N/A   Clear
7:15 PM 82.4 °F 82.0 °F 57.2 °F 42% 30.04 in 10.0 mi Calm Calm - N/A   Clear
7:35 PM 80.6 °F 80.8 °F 57.2 °F 45% 30.05 in 10.0 mi Calm Calm - N/A   Clear
8:15 PM 73.4 °F - 62.6 °F 69% 30.06 in 10.0 mi Calm Calm - N/A   Clear
8:35 PM 73.4 °F - 62.6 °F 69% 30.07 in 10.0 mi Calm Calm - N/A   Clear
8:55 PM 71.6 °F - 62.6 °F 73% 30.07 in 10.0 mi Calm Calm - N/A   Clear
9:15 PM 69.8 °F - 62.6 °F 78% 30.08 in 10.0 mi Calm Calm - N/A   Clear
9:35 PM 69.8 °F - 62.6 °F 78% 30.08 in 10.0 mi Calm Calm - N/A   Clear
9:55 PM 68.0 °F - 60.8 °F 78% 30.09 in 10.0 mi Calm Calm - N/A   Clear
10:15 PM 68.0 °F - 60.8 °F 78% 30.10 in 10.0 mi Calm Calm - N/A   Clear
10:35 PM 66.2 °F - 60.8 °F 83% 30.10 in 10.0 mi Calm Calm - N/A   Clear
10:55 PM 64.4 °F - 60.8 °F 88% 30.10 in 10.0 mi Calm Calm - N/A   Clear
11:15 PM 64.4 °F - 62.6 °F 94% 30.10 in 10.0 mi Calm Calm - N/A   Clear
11:35 PM 64.4 °F - 60.8 °F 88% 30.10 in 10.0 mi Calm Calm - N/A   Clear
11:55 PM 64.4 °F - 60.8 °F 88% 30.10 in 10.0 mi Calm Calm - N/A   Clear